Time,TemperatureF,DewpointF,PressureIn,WindDirection,WindDirectionDegrees,WindSpeedMPH,WindSpeedGustMPH,Humidity,HourlyPrecipIn,Conditions,Clouds,dailyrainin,SoftwareType,DateUTC
2013-01-15 00:04:00,17.0,15.0,30.42,WSW,237,0.0,-999.0,93,-99.99,,,-99.99,,2013-01-15 05:04:00,
2013-01-15 00:12:00,16.0,14.0,30.42,WSW,237,0.0,-999.0,92,-99.99,,,-99.99,,2013-01-15 05:12:00,
2013-01-15 00:22:00,16.0,14.0,30.42,WSW,237,0.0,-999.0,92,-99.99,,,-99.99,,2013-01-15 05:22:00,
2013-01-15 00:33:00,16.0,14.0,30.42,WSW,237,0.0,-999.0,93,-99.99,,,-99.99,,2013-01-15 05:33:00,
2013-01-15 00:42:00,16.0,14.0,30.42,WSW,237,0.0,-999.0,93,-99.99,,,-99.99,,2013-01-15 05:42:00,
2013-01-15 00:52:00,16.0,14.0,30.42,WSW,237,0.0,-999.0,92,-99.99,,,-99.99,,2013-01-15 05:52:00,
2013-01-15 01:03:00,16.0,14.0,30.42,WSW,237,0.0,-999.0,93,-99.99,,,-99.99,,2013-01-15 06:03:00,
2013-01-15 01:12:00,16.0,14.0,30.42,WSW,237,0.0,-999.0,93,-99.99,,,-99.99,,2013-01-15 06:12:00,
2013-01-15 01:22:00,16.0,14.0,30.43,WSW,237,0.0,-999.0,93,-99.99,,,-99.99,,2013-01-15 06:22:00,
2013-01-15 01:33:00,15.0,13.0,30.42,WSW,237,0.0,-999.0,93,-99.99,,,-99.99,,2013-01-15 06:33:00,
2013-01-15 01:43:00,15.0,13.0,30.42,WSW,237,0.0,-999.0,93,-99.99,,,-99.99,,2013-01-15 06:43:00,
2013-01-15 01:53:00,15.0,13.0,30.43,WSW,237,0.0,-999.0,93,-99.99,,,-99.99,,2013-01-15 06:53:00,
2013-01-15 02:02:00,15.0,13.0,30.43,WSW,237,0.0,-999.0,93,-99.99,,,-99.99,,2013-01-15 07:02:00,
2013-01-15 02:12:00,15.0,13.0,30.43,WSW,237,0.0,-999.0,93,-99.99,,,-99.99,,2013-01-15 07:12:00,
2013-01-15 02:22:00,15.0,13.0,30.43,WSW,237,0.0,-999.0,93,-99.99,,,-99.99,,2013-01-15 07:22:00,
2013-01-15 02:33:00,15.0,13.0,30.44,WSW,237,0.0,-999.0,93,-99.99,,,-99.99,,2013-01-15 07:33:00,
2013-01-15 02:42:00,15.0,13.0,30.44,WSW,237,0.0,-999.0,93,-99.99,,,-99.99,,2013-01-15 07:42:00,
2013-01-15 02:53:00,16.0,14.0,30.43,WSW,237,0.0,-999.0,93,-99.99,,,-99.99,,2013-01-15 07:53:00,
2013-01-15 03:02:00,16.0,14.0,30.43,WSW,237,0.0,-999.0,93,-99.99,,,-99.99,,2013-01-15 08:02:00,
2013-01-15 03:12:00,16.0,14.0,30.43,WSW,237,0.0,-999.0,93,-99.99,,,-99.99,,2013-01-15 08:12:00,
2013-01-15 03:22:00,15.0,13.0,30.43,WSW,237,0.0,-999.0,93,-99.99,,,-99.99,,2013-01-15 08:22:00,
2013-01-15 03:33:00,15.0,13.0,30.43,WSW,237,0.0,-999.0,92,-99.99,,,-99.99,,2013-01-15 08:33:00,
2013-01-15 03:42:00,15.0,13.0,30.43,WSW,237,0.0,-999.0,92,-99.99,,,-99.99,,2013-01-15 08:42:00,
2013-01-15 03:53:00,15.0,13.0,30.42,WSW,237,0.0,-999.0,93,-99.99,,,-99.99,,2013-01-15 08:53:00,
2013-01-15 04:02:00,15.0,13.0,30.42,WSW,237,0.0,-999.0,92,-99.99,,,-99.99,,2013-01-15 09:02:00,
2013-01-15 04:12:00,15.0,13.0,30.42,WSW,237,0.0,-999.0,92,-99.99,,,-99.99,,2013-01-15 09:12:00,
2013-01-15 04:22:00,15.0,13.0,30.42,WSW,237,0.0,-999.0,93,-99.99,,,-99.99,,2013-01-15 09:22:00,
2013-01-15 04:33:00,15.0,13.0,30.42,WSW,237,0.0,-999.0,93,-99.99,,,-99.99,,2013-01-15 09:33:00,
2013-01-15 04:42:00,15.0,13.0,30.42,WSW,237,0.0,-999.0,93,-99.99,,,-99.99,,2013-01-15 09:42:00,
2013-01-15 04:52:00,15.0,13.0,30.42,WSW,237,0.0,-999.0,93,-99.99,,,-99.99,,2013-01-15 09:52:00,
2013-01-15 05:02:00,15.0,13.0,30.41,WSW,237,0.0,-999.0,93,-99.99,,,-99.99,,2013-01-15 10:02:00,
2013-01-15 05:12:00,15.0,13.0,30.41,WSW,237,0.0,-999.0,93,-99.99,,,-99.99,,2013-01-15 10:12:00,
2013-01-15 05:22:00,15.0,13.0,30.42,WSW,237,0.0,-999.0,92,-99.99,,,-99.99,,2013-01-15 10:22:00,
2013-01-15 05:32:00,15.0,13.0,30.42,WSW,237,0.0,-999.0,92,-99.99,,,-99.99,,2013-01-15 10:32:00,
2013-01-15 05:42:00,15.0,13.0,30.42,WSW,237,0.0,-999.0,92,-99.99,,,-99.99,,2013-01-15 10:42:00,
2013-01-15 05:52:00,15.0,13.0,30.42,WSW,237,0.0,-999.0,92,-99.99,,,-99.99,,2013-01-15 10:52:00,
2013-01-15 06:02:00,14.0,12.0,30.42,WSW,237,0.0,-999.0,92,-99.99,,,-99.99,,2013-01-15 11:02:00,
2013-01-15 06:12:00,14.0,12.0,30.42,WSW,237,0.0,-999.0,92,-99.99,,,-99.99,,2013-01-15 11:12:00,
2013-01-15 06:22:00,14.0,12.0,30.42,WSW,237,0.0,-999.0,92,-99.99,,,-99.99,,2013-01-15 11:22:00,
2013-01-15 06:33:00,14.0,12.0,30.42,WSW,237,0.0,-999.0,92,-99.99,,,-99.99,,2013-01-15 11:33:00,
2013-01-15 06:42:00,14.0,12.0,30.42,WSW,237,0.0,-999.0,92,-99.99,,,-99.99,,2013-01-15 11:42:00,
2013-01-15 06:53:00,14.0,12.0,30.42,WSW,237,0.0,-999.0,92,-99.99,,,-99.99,,2013-01-15 11:53:00,
2013-01-15 07:03:00,14.0,12.0,30.42,WSW,237,0.0,-999.0,92,-99.99,,,-99.99,,2013-01-15 12:03:00,
2013-01-15 07:12:00,14.0,12.0,30.42,WSW,237,0.0,-999.0,92,-99.99,,,-99.99,,2013-01-15 12:12:00,
2013-01-15 07:22:00,14.0,12.0,30.41,WSW,237,0.0,-999.0,92,-99.99,,,-99.99,,2013-01-15 12:22:00,
2013-01-15 07:33:00,14.0,12.0,30.42,WSW,237,0.0,-999.0,92,-99.99,,,-99.99,,2013-01-15 12:33:00,
2013-01-15 07:43:00,14.0,12.0,30.42,WSW,237,0.0,-999.0,92,-99.99,,,-99.99,,2013-01-15 12:43:00,
2013-01-15 07:53:00,13.0,11.0,30.43,WSW,237,0.0,-999.0,91,-99.99,,,-99.99,,2013-01-15 12:53:00,
2013-01-15 08:03:00,13.0,11.0,30.43,WSW,237,0.0,-999.0,92,-99.99,,,-99.99,,2013-01-15 13:03:00,
2013-01-15 08:12:00,13.0,11.0,30.43,WSW,237,0.0,-999.0,92,-99.99,,,-99.99,,2013-01-15 13:12:00,
2013-01-15 08:23:00,13.0,11.0,30.43,WSW,237,0.0,-999.0,92,-99.99,,,-99.99,,2013-01-15 13:23:00,
2013-01-15 08:33:00,14.0,12.0,30.43,WSW,237,0.0,-999.0,93,-99.99,,,-99.99,,2013-01-15 13:33:00,
2013-01-15 08:43:00,14.0,12.0,30.43,WSW,237,0.0,-999.0,93,-99.99,,,-99.99,,2013-01-15 13:43:00,
2013-01-15 08:53:00,14.0,12.0,30.44,WSW,237,0.0,-999.0,93,-99.99,,,-99.99,,2013-01-15 13:53:00,
2013-01-15 09:03:00,14.0,12.0,30.43,WSW,237,0.0,-999.0,93,-99.99,,,-99.99,,2013-01-15 14:03:00,
2013-01-15 09:12:00,14.0,12.0,30.43,WSW,237,0.0,-999.0,93,-99.99,,,-99.99,,2013-01-15 14:12:00,
2013-01-15 09:23:00,15.0,13.0,30.43,WSW,237,0.0,-999.0,93,-99.99,,,-99.99,,2013-01-15 14:23:00,
2013-01-15 09:33:00,16.0,15.0,30.43,WSW,237,0.0,-999.0,94,-99.99,,,-99.99,,2013-01-15 14:33:00,
2013-01-15 09:43:00,16.0,15.0,30.43,WSW,237,0.0,-999.0,94,-99.99,,,-99.99,,2013-01-15 14:43:00,
2013-01-15 09:53:00,18.0,17.0,30.42,WSW,237,0.0,-999.0,94,-99.99,,,-99.99,,2013-01-15 14:53:00,
2013-01-15 10:03:00,20.0,19.0,30.42,WSW,237,0.0,-999.0,94,-99.99,,,-99.99,,2013-01-15 15:03:00,
2013-01-15 10:12:00,20.0,19.0,30.42,WSW,237,0.0,-999.0,94,-99.99,,,-99.99,,2013-01-15 15:12:00,
2013-01-15 10:23:00,21.0,19.0,30.42,ESE,114,0.0,-999.0,93,-99.99,,,-99.99,,2013-01-15 15:23:00,
2013-01-15 10:33:00,22.0,20.0,30.42,ESE,114,0.0,-999.0,90,-99.99,,,-99.99,,2013-01-15 15:33:00,
2013-01-15 10:43:00,22.0,20.0,30.42,ESE,114,0.0,-999.0,90,-99.99,,,-99.99,,2013-01-15 15:43:00,
2013-01-15 10:53:00,23.0,20.0,30.44,ESE,123,0.0,-999.0,88,-99.99,,,-99.99,,2013-01-15 15:53:00,
2013-01-15 11:03:00,24.0,20.0,30.43,ESE,123,0.0,-999.0,85,-99.99,,,-99.99,,2013-01-15 16:03:00,
2013-01-15 11:12:00,24.0,20.0,30.43,ESE,123,0.0,-999.0,85,-99.99,,,-99.99,,2013-01-15 16:12:00,
2013-01-15 11:22:00,24.0,20.0,30.43,ESE,123,0.0,-999.0,85,-99.99,,,-99.99,,2013-01-15 16:22:00,
2013-01-15 11:33:00,24.0,20.0,30.43,ESE,102,0.0,-999.0,85,-99.99,,,-99.99,,2013-01-15 16:33:00,
2013-01-15 11:43:00,24.0,20.0,30.43,ESE,102,0.0,-999.0,85,-99.99,,,-99.99,,2013-01-15 16:43:00,
2013-01-15 11:53:00,25.0,21.0,30.43,ESE,102,0.0,-999.0,83,-99.99,,,-99.99,,2013-01-15 16:53:00,
2013-01-15 12:04:00,26.0,21.0,30.43,ENE,63,1.0,-999.0,81,-99.99,,,-99.99,,2013-01-15 17:04:00,
2013-01-15 12:13:00,26.0,21.0,30.43,ENE,63,1.0,-999.0,81,-99.99,,,-99.99,,2013-01-15 17:13:00,
2013-01-15 12:23:00,26.0,21.0,30.41,ENE,63,1.0,-999.0,80,-99.99,,,-99.99,,2013-01-15 17:23:00,
2013-01-15 12:33:00,26.0,21.0,30.39,NE,44,1.0,-999.0,82,-99.99,,,-99.99,,2013-01-15 17:33:00,
2013-01-15 12:43:00,26.0,21.0,30.39,NE,44,1.0,-999.0,82,-99.99,,,-99.99,,2013-01-15 17:43:00,
2013-01-15 12:53:00,27.0,22.0,30.35,NE,54,1.0,-999.0,81,-99.99,,,-99.99,,2013-01-15 17:53:00,
2013-01-15 13:03:00,27.0,21.0,30.36,ENE,66,1.0,-999.0,79,-99.99,,,-99.99,,2013-01-15 18:03:00,
2013-01-15 13:13:00,27.0,21.0,30.36,ENE,66,1.0,-999.0,79,-99.99,,,-99.99,,2013-01-15 18:13:00,
2013-01-15 13:23:00,27.0,21.0,30.37,ENE,66,0.0,-999.0,79,-99.99,,,-99.99,,2013-01-15 18:23:00,
2013-01-15 13:33:00,28.0,22.0,30.36,ESE,120,0.0,-999.0,79,-99.99,,,-99.99,,2013-01-15 18:33:00,
2013-01-15 13:43:00,28.0,22.0,30.36,ESE,120,0.0,-999.0,79,-99.99,,,-99.99,,2013-01-15 18:43:00,
2013-01-15 13:53:00,28.0,21.0,30.34,ESE,109,1.0,-999.0,76,-99.99,,,-99.99,,2013-01-15 18:53:00,
2013-01-15 14:03:00,28.0,22.0,30.32,NNE,25,0.0,-999.0,77,-99.99,,,-99.99,,2013-01-15 19:03:00,
2013-01-15 14:12:00,28.0,22.0,30.32,NNE,25,0.0,-999.0,77,-99.99,,,-99.99,,2013-01-15 19:12:00,
2013-01-15 14:23:00,28.0,21.0,30.31,East,89,1.0,-999.0,76,-99.99,,,-99.99,,2013-01-15 19:23:00,
2013-01-15 14:33:00,28.0,22.0,30.32,East,99,1.0,-999.0,78,-99.99,,,-99.99,,2013-01-15 19:33:00,
2013-01-15 14:42:00,28.0,22.0,30.32,East,99,1.0,-999.0,78,-99.99,,,-99.99,,2013-01-15 19:42:00,
2013-01-15 14:53:00,28.0,22.0,30.32,East,99,1.0,-999.0,78,-99.99,,,-99.99,,2013-01-15 19:53:00,
2013-01-15 15:03:00,28.0,21.0,30.32,ESE,117,1.0,-999.0,76,-99.99,,,-99.99,,2013-01-15 20:03:00,
2013-01-15 15:12:00,28.0,21.0,30.32,ESE,117,1.0,-999.0,76,-99.99,,,-99.99,,2013-01-15 20:12:00,
2013-01-15 15:23:00,28.0,21.0,30.32,ESE,113,0.0,-999.0,75,-99.99,,,-99.99,,2013-01-15 20:23:00,
2013-01-15 15:33:00,28.0,21.0,30.31,ENE,71,0.0,-999.0,76,-99.99,,,-99.99,,2013-01-15 20:33:00,
2013-01-15 15:43:00,28.0,21.0,30.31,ENE,71,0.0,-999.0,76,-99.99,,,-99.99,,2013-01-15 20:43:00,
2013-01-15 15:53:00,28.0,22.0,30.30,ESE,111,0.0,-999.0,77,-99.99,,,-99.99,,2013-01-15 20:53:00,
2013-01-15 16:03:00,28.0,21.0,30.30,ESE,113,0.0,-999.0,76,-99.99,,,-99.99,,2013-01-15 21:03:00,
2013-01-15 16:13:00,28.0,21.0,30.30,ESE,113,0.0,-999.0,76,-99.99,,,-99.99,,2013-01-15 21:13:00,
2013-01-15 16:23:00,28.0,22.0,30.30,ENE,76,0.0,-999.0,77,-99.99,,,-99.99,,2013-01-15 21:23:00,
2013-01-15 16:33:00,28.0,22.0,30.31,ESE,111,0.0,-999.0,77,-99.99,,,-99.99,,2013-01-15 21:33:00,
2013-01-15 16:43:00,28.0,22.0,30.31,ESE,111,0.0,-999.0,77,-99.99,,,-99.99,,2013-01-15 21:43:00,
2013-01-15 16:53:00,28.0,22.0,30.32,SE,137,1.0,-999.0,77,-99.99,,,-99.99,,2013-01-15 21:53:00,
2013-01-15 17:03:00,27.0,21.0,30.32,ESE,109,0.0,-999.0,78,-99.99,,,-99.99,,2013-01-15 22:03:00,
2013-01-15 17:12:00,27.0,21.0,30.32,ESE,109,0.0,-999.0,78,-99.99,,,-99.99,,2013-01-15 22:12:00,
2013-01-15 17:23:00,27.0,21.0,30.32,ESE,112,0.0,-999.0,79,-99.99,,,-99.99,,2013-01-15 22:23:00,
2013-01-15 17:33:00,27.0,21.0,30.31,ESE,112,0.0,-999.0,79,-99.99,,,-99.99,,2013-01-15 22:33:00,
2013-01-15 17:43:00,27.0,21.0,30.31,ESE,112,0.0,-999.0,79,-99.99,,,-99.99,,2013-01-15 22:43:00,
2013-01-15 17:53:00,27.0,21.0,30.30,ESE,112,0.0,-999.0,79,-99.99,,,-99.99,,2013-01-15 22:53:00,
2013-01-15 18:02:00,27.0,21.0,30.29,ESE,112,0.0,-999.0,79,-99.99,,,-99.99,,2013-01-15 23:02:00,
2013-01-15 18:13:00,27.0,21.0,30.29,ESE,112,0.0,-999.0,79,-99.99,,,-99.99,,2013-01-15 23:13:00,
2013-01-15 18:23:00,27.0,22.0,30.29,ESE,112,0.0,-999.0,80,-99.99,,,-99.99,,2013-01-15 23:23:00,
2013-01-15 18:33:00,26.0,21.0,30.27,ESE,112,0.0,-999.0,81,-99.99,,,-99.99,,2013-01-15 23:33:00,
2013-01-15 18:43:00,26.0,21.0,30.27,ESE,112,0.0,-999.0,81,-99.99,,,-99.99,,2013-01-15 23:43:00,
2013-01-15 18:53:00,26.0,21.0,30.28,ESE,112,0.0,-999.0,82,-99.99,,,-99.99,,2013-01-15 23:53:00,
2013-01-15 19:03:00,26.0,22.0,30.28,ESE,112,0.0,-999.0,83,-99.99,,,-99.99,,2013-01-16 00:03:00,
2013-01-15 19:13:00,26.0,22.0,30.28,ESE,112,0.0,-999.0,83,-99.99,,,-99.99,,2013-01-16 00:13:00,
2013-01-15 19:20:00,26.0,21.0,30.26,NNE,30,2.0,-999.0,82,-99.99,,,-99.99,,2013-01-16 00:20:00,
2013-01-15 19:22:00,26.0,22.0,30.27,ESE,112,0.0,-999.0,83,-99.99,,,-99.99,,2013-01-16 00:22:00,
2013-01-15 19:33:00,26.0,22.0,30.27,ESE,112,0.0,-999.0,83,-99.99,,,-99.99,,2013-01-16 00:33:00,
2013-01-15 19:43:00,26.0,22.0,30.27,ESE,112,0.0,-999.0,83,-99.99,,,-99.99,,2013-01-16 00:43:00,
2013-01-15 19:52:00,26.0,21.0,30.26,NNE,30,2.0,-999.0,82,-99.99,,,-99.99,,2013-01-16 00:52:00,
2013-01-15 20:03:00,26.0,21.0,30.26,NNE,30,2.0,-999.0,82,-99.99,,,-99.99,,2013-01-16 01:03:00,
2013-01-15 20:12:00,26.0,21.0,30.26,NNE,30,2.0,-999.0,82,-99.99,,,-99.99,,2013-01-16 01:12:00,
2013-01-15 20:33:00,26.0,22.0,30.24,NNE,30,0.0,-999.0,83,-99.99,,,-99.99,,2013-01-16 01:33:00,
2013-01-15 20:43:00,26.0,22.0,30.24,NNE,30,0.0,-999.0,83,-99.99,,,-99.99,,2013-01-16 01:43:00,
2013-01-15 20:53:00,26.0,22.0,30.23,NNE,30,0.0,-999.0,83,-99.99,,,-99.99,,2013-01-16 01:53:00,
2013-01-15 21:03:00,26.0,22.0,30.23,NNE,30,1.0,-999.0,83,-99.99,,,-99.99,,2013-01-16 02:03:00,
2013-01-15 21:12:00,26.0,22.0,30.23,NNE,30,1.0,-999.0,83,-99.99,,,-99.99,,2013-01-16 02:12:00,
2013-01-15 21:22:00,26.0,22.0,30.22,NE,35,0.0,-999.0,84,-99.99,,,-99.99,,2013-01-16 02:22:00,
2013-01-15 21:33:00,25.0,21.0,30.21,NE,35,0.0,-999.0,84,-99.99,,,-99.99,,2013-01-16 02:33:00,
2013-01-15 21:43:00,25.0,21.0,30.21,NE,35,0.0,-999.0,84,-99.99,,,-99.99,,2013-01-16 02:43:00,
2013-01-15 21:52:00,25.0,21.0,30.21,NE,35,0.0,-999.0,85,-99.99,,,-99.99,,2013-01-16 02:52:00,
2013-01-15 22:03:00,25.0,21.0,30.21,NE,35,0.0,-999.0,85,-99.99,,,-99.99,,2013-01-16 03:03:00,
2013-01-15 22:12:00,25.0,21.0,30.19,NE,35,0.0,-999.0,85,-99.99,,,-99.99,,2013-01-16 03:12:00,
2013-01-15 22:22:00,25.0,21.0,30.19,NE,35,0.0,-999.0,85,-99.99,,,-99.99,,2013-01-16 03:22:00,
2013-01-15 22:33:00,24.0,20.0,30.19,NE,35,0.0,-999.0,86,-99.99,,,-99.99,,2013-01-16 03:33:00,
2013-01-15 22:43:00,24.0,20.0,30.19,NE,35,0.0,-999.0,86,-99.99,,,-99.99,,2013-01-16 03:43:00,
2013-01-15 22:52:00,24.0,20.0,30.19,NE,35,1.0,-999.0,86,-99.99,,,-99.99,,2013-01-16 03:52:00,
2013-01-15 23:02:00,24.0,20.0,30.18,NE,35,0.0,-999.0,86,-99.99,,,-99.99,,2013-01-16 04:02:00,
2013-01-15 23:12:00,24.0,20.0,30.18,NE,35,0.0,-999.0,86,-99.99,,,-99.99,,2013-01-16 04:12:00,
2013-01-15 23:22:00,24.0,20.0,30.17,NE,35,0.0,-999.0,86,-99.99,,,-99.99,,2013-01-16 04:22:00,
2013-01-15 23:33:00,24.0,21.0,30.16,NE,35,0.0,-999.0,87,-99.99,,,-99.99,,2013-01-16 04:33:00,
2013-01-15 23:42:00,24.0,21.0,30.16,NE,35,0.0,-999.0,87,-99.99,,,-99.99,,2013-01-16 04:42:00,
2013-01-15 23:52:00,24.0,21.0,30.16,NE,35,0.0,-999.0,87,-99.99,,,-99.99,,2013-01-16 04:52:00,